International Skating Union - Official Site

ISU World Single Distance Championships 2015
February 12-15, 2015

Draw | Lap Times | Index | Classification

Referee: Jan  BOLT  (NED)
Starter: Yoshihiro  KITAZAWA  (JPN)
StartTime: EndTime: Air Temp: Ice Temp: Humidity:
13:00 14:39 16.4℃ -7.3℃ 29%
Result 5000m Men
Rankings as of Feb 14 2015 2:54PM
Rank: No.: Name: Nation: Time: Behind: Points:
1 60 Sven  Kramer NED NED 6:09.65200m - 18.48 - (18.4)
600m - 47.40 - (28.9)
1000m - 1:17.07 - (29.6)
1400m - 1:46.27 - (29.2)
1800m - 2:15.33 - (29.0)
2200m - 2:44.66 - (29.3)
2600m - 3:13.91 - (29.2)
3000m - 3:42.96 - (29.0)
3400m - 4:12.02 - (29.0)
3800m - 4:41.22 - (29.2)
4200m - 5:10.46 - (29.2)
4600m - 5:39.72 - (29.2)
5000m - 6:09.65 - (29.9)
36.965
2 55 Jorrit  Bergsma NED NED 6:11.53200m - 19.09 - (19.0)
600m - 48.21 - (29.1)
1000m - 1:17.39 - (29.1)
1400m - 1:46.35 - (28.9)
1800m - 2:15.14 - (28.7)
2200m - 2:44.03 - (28.9)
2600m - 3:12.99 - (28.9)
3000m - 3:42.26 - (29.2)
3400m - 4:11.83 - (29.5)
3800m - 4:41.38 - (29.5)
4200m - 5:11.16 - (29.7)
4600m - 5:41.27 - (30.1)
5000m - 6:11.53 - (30.2)
1.88 37.153
3 69 Douwe  de Vries NED NED 6:18.24200m - 18.91 - (18.9)
600m - 48.14 - (29.2)
1000m - 1:17.94 - (29.8)
1400m - 1:48.14 - (30.2)
1800m - 2:18.31 - (30.1)
2200m - 2:48.52 - (30.2)
2600m - 3:18.56 - (30.0)
3000m - 3:48.33 - (29.7)
3400m - 4:18.24 - (29.9)
3800m - 4:48.29 - (30.0)
4200m - 5:18.43 - (30.1)
4600m - 5:48.35 - (29.9)
5000m - 6:18.24 - (29.8)
8.59 37.824
4 95 Denis  Yuskov RUS RUS 6:19.74200m - 18.38 - (18.3)
600m - 48.19 - (29.8)
1000m - 1:18.19 - (30.0)
1400m - 1:48.03 - (29.8)
1800m - 2:18.19 - (30.1)
2200m - 2:48.54 - (30.3)
2600m - 3:19.15 - (30.6)
3000m - 3:49.59 - (30.4)
3400m - 4:19.57 - (29.9)
3800m - 4:49.34 - (29.7)
4200m - 5:19.05 - (29.7)
4600m - 5:49.82 - (30.7)
5000m - 6:19.74 - (29.9)
10.09 37.974
5 24 Alexis  Contin FRA FRA 6:19.99200m - 19.36 - (19.3)
600m - 49.12 - (29.7)
1000m - 1:19.06 - (29.9)
1400m - 1:48.83 - (29.7)
1800m - 2:18.52 - (29.6)
2200m - 2:48.42 - (29.9)
2600m - 3:17.84 - (29.4)
3000m - 3:47.00 - (29.1)
3400m - 4:16.68 - (29.6)
3800m - 4:46.84 - (30.1)
4200m - 5:17.40 - (30.5)
4600m - 5:48.44 - (31.0)
5000m - 6:19.99 - (31.5)
10.34 37.999
6 6 Ted-Jan  Bloemen CAN CAN 6:21.16200m - 18.77 - (18.7)
600m - 48.58 - (29.8)
1000m - 1:18.36 - (29.7)
1400m - 1:48.24 - (29.8)
1800m - 2:17.76 - (29.5)
2200m - 2:47.46 - (29.7)
2600m - 3:17.30 - (29.8)
3000m - 3:47.23 - (29.9)
3400m - 4:17.49 - (30.2)
3800m - 4:48.56 - (31.0)
4200m - 5:19.43 - (30.8)
4600m - 5:50.18 - (30.7)
5000m - 6:21.16 - (30.9)
11.51 38.116
7 27 Patrick  Beckert GER GER 6:21.63200m - 19.56 - (19.5)
600m - 48.73 - (29.1)
1000m - 1:18.80 - (30.0)
1400m - 1:49.22 - (30.4)
1800m - 2:19.70 - (30.4)
2200m - 2:50.10 - (30.4)
2600m - 3:20.31 - (30.2)
3000m - 3:50.58 - (30.2)
3400m - 4:20.90 - (30.3)
3800m - 4:51.14 - (30.2)
4200m - 5:21.28 - (30.1)
4600m - 5:51.29 - (30.0)
5000m - 6:21.63 - (30.3)
11.98 38.163
8 52 Seung-Hoon  Lee KOR KOR 6:23.02200m - 18.94 - (18.9)
600m - 48.16 - (29.2)
1000m - 1:18.24 - (30.0)
1400m - 1:48.50 - (30.2)
1800m - 2:18.89 - (30.3)
2200m - 2:49.35 - (30.4)
2600m - 3:20.10 - (30.7)
3000m - 3:50.23 - (30.1)
3400m - 4:20.74 - (30.5)
3800m - 4:50.95 - (30.2)
4200m - 5:21.28 - (30.3)
4600m - 5:51.61 - (30.3)
5000m - 6:23.02 - (31.4)
13.37 38.302
9 3 Bart  Swings BEL BEL 6:23.77200m - 18.54 - (18.5)
600m - 47.78 - (29.2)
1000m - 1:18.11 - (30.3)
1400m - 1:48.36 - (30.2)
1800m - 2:18.53 - (30.1)
2200m - 2:48.77 - (30.2)
2600m - 3:19.13 - (30.3)
3000m - 3:49.47 - (30.3)
3400m - 4:19.94 - (30.4)
3800m - 4:50.46 - (30.5)
4200m - 5:21.30 - (30.8)
4600m - 5:52.33 - (31.0)
5000m - 6:23.77 - (31.4)
14.12 38.377
10 89 Aleksandr  Rumyantsev RUS RUS 6:24.41200m - 19.42 - (19.4)
600m - 50.02 - (30.6)
1000m - 1:20.66 - (30.6)
1400m - 1:51.28 - (30.6)
1800m - 2:21.92 - (30.6)
2200m - 2:52.44 - (30.5)
2600m - 3:23.11 - (30.6)
3000m - 3:53.44 - (30.3)
3400m - 4:23.64 - (30.2)
3800m - 4:53.58 - (29.9)
4200m - 5:23.90 - (30.3)
4600m - 5:54.03 - (30.1)
5000m - 6:24.41 - (30.3)
14.76 38.441
11 75 Sverre  Lunde Pedersen NOR NOR 6:24.76200m - 18.83 - (18.8)
600m - 49.30 - (30.4)
1000m - 1:19.84 - (30.5)
1400m - 1:50.13 - (30.2)
1800m - 2:20.22 - (30.0)
2200m - 2:50.65 - (30.4)
2600m - 3:21.11 - (30.4)
3000m - 3:51.56 - (30.4)
3400m - 4:22.05 - (30.4)
3800m - 4:52.59 - (30.5)
4200m - 5:23.14 - (30.5)
4600m - 5:53.99 - (30.8)
5000m - 6:24.76 - (30.7)
15.11 38.476
12 77 Peter  Michael NZL NZL 6:26.94200m - 18.63 - (18.6)
600m - 47.67 - (29.0)
1000m - 1:18.09 - (30.4)
1400m - 1:48.55 - (30.4)
1800m - 2:19.39 - (30.8)
2200m - 2:49.80 - (30.4)
2600m - 3:20.40 - (30.6)
3000m - 3:51.14 - (30.7)
3400m - 4:22.01 - (30.8)
3800m - 4:53.16 - (31.1)
4200m - 5:24.60 - (31.4)
4600m - 5:55.99 - (31.3)
5000m - 6:26.94 - (30.9)
17.29 38.694
13 70 Håvard  Bøkko NOR NOR 6:27.00200m - 18.88 - (18.8)
600m - 48.96 - (30.0)
1000m - 1:19.62 - (30.6)
1400m - 1:50.25 - (30.6)
1800m - 2:20.76 - (30.5)
2200m - 2:51.38 - (30.6)
2600m - 3:22.10 - (30.7)
3000m - 3:52.78 - (30.6)
3400m - 4:23.60 - (30.8)
3800m - 4:54.43 - (30.8)
4200m - 5:25.30 - (30.8)
4600m - 5:56.21 - (30.9)
5000m - 6:27.00 - (30.7)
17.35 38.700
14 37 Andrea  Giovannini ITA ITA 6:29.73200m - 18.95 - (18.9)
600m - 49.01 - (30.0)
1000m - 1:19.71 - (30.7)
1400m - 1:50.62 - (30.9)
1800m - 2:21.29 - (30.6)
2200m - 2:51.99 - (30.7)
2600m - 3:22.98 - (30.9)
3000m - 3:53.93 - (30.9)
3400m - 4:25.15 - (31.2)
3800m - 4:56.23 - (31.0)
4200m - 5:27.32 - (31.0)
4600m - 5:58.47 - (31.1)
5000m - 6:29.73 - (31.2)
20.08 38.973
15 26 Alexej  Baumgärtner GER GER 6:32.90200m - 19.41 - (19.4)
600m - 49.47 - (30.0)
1000m - 1:20.21 - (30.7)
1400m - 1:51.12 - (30.9)
1800m - 2:22.09 - (30.9)
2200m - 2:53.18 - (31.0)
2600m - 3:24.45 - (31.2)
3000m - 3:55.93 - (31.4)
3400m - 4:26.97 - (31.0)
3800m - 4:58.40 - (31.4)
4200m - 5:29.97 - (31.5)
4600m - 6:01.50 - (31.5)
5000m - 6:32.90 - (31.4)
23.25 39.290
16 92 Danil  Sinitsyn RUS RUS 6:33.45200m - 19.73 - (19.7)
600m - 49.21 - (29.4)
1000m - 1:19.41 - (30.2)
1400m - 1:49.46 - (30.0)
1800m - 2:20.26 - (30.8)
2200m - 2:50.81 - (30.5)
2600m - 3:21.76 - (30.9)
3000m - 3:52.60 - (30.8)
3400m - 4:23.93 - (31.3)
3800m - 4:55.87 - (31.9)
4200m - 5:28.39 - (32.5)
4600m - 6:01.09 - (32.7)
5000m - 6:33.45 - (32.3)
23.80 39.345
17 46 Shane  Williamson JPN JPN 6:34.33200m - 18.64 - (18.6)
600m - 48.49 - (29.8)
1000m - 1:18.34 - (29.8)
1400m - 1:48.81 - (30.4)
1800m - 2:19.36 - (30.5)
2200m - 2:50.45 - (31.0)
2600m - 3:21.51 - (31.0)
3000m - 3:52.89 - (31.3)
3400m - 4:24.71 - (31.8)
3800m - 4:56.89 - (32.1)
4200m - 5:28.91 - (32.0)
4600m - 6:01.21 - (32.3)
5000m - 6:34.33 - (33.1)
24.68 39.433
18 21 Viktor-Hald  Thorup DEN DEN 6:34.77200m - 20.30 - (20.3)
600m - 50.94 - (30.6)
1000m - 1:21.73 - (30.7)
1400m - 1:52.50 - (30.7)
1800m - 2:23.26 - (30.7)
2200m - 2:53.92 - (30.6)
2600m - 3:24.67 - (30.7)
3000m - 3:55.55 - (30.8)
3400m - 4:26.44 - (30.8)
3800m - 4:57.55 - (31.1)
4200m - 5:29.42 - (31.8)
4600m - 6:01.87 - (32.4)
5000m - 6:34.77 - (32.9)
25.12 39.477
19 31 Jonas  Pflug GER GER 6:35.19200m - 18.97 - (18.9)
600m - 48.99 - (30.0)
1000m - 1:19.20 - (30.2)
1400m - 1:49.75 - (30.5)
1800m - 2:20.55 - (30.8)
2200m - 2:51.46 - (30.9)
2600m - 3:22.54 - (31.0)
3000m - 3:54.60 - (32.0)
3400m - 4:26.82 - (32.2)
3800m - 4:58.79 - (31.9)
4200m - 5:30.85 - (32.0)
4600m - 6:03.03 - (32.1)
5000m - 6:35.19 - (32.1)
25.54 39.519
20 74 Simen  Spieler Nilsen NOR NOR 6:36.89200m - 19.05 - (19.0)
600m - 49.70 - (30.6)
1000m - 1:21.17 - (31.4)
1400m - 1:52.37 - (31.2)
1800m - 2:23.56 - (31.1)
2200m - 2:54.84 - (31.2)
2600m - 3:26.15 - (31.3)
3000m - 3:57.53 - (31.3)
3400m - 4:29.13 - (31.6)
3800m - 5:00.31 - (31.1)
4200m - 5:31.96 - (31.6)
4600m - 6:04.03 - (32.0)
5000m - 6:36.89 - (32.8)
27.24 39.689